Garden City, KS

8:43 PM CST on December 14, 2019 (GMT -0600)
Garden City Regional

Weather History for KGCK - November, 2019

Change the Weather History Date:

Thursday, November 14, 2019

  Actual Average Record
Temperature  
Mean Temperature 38 °F 42 °F  
Max Temperature 55 °F 56 °F 81 °F (1988)
Min Temperature 22 °F 28 °F 13 °F (2000)
Degree Days  
Heating Degree Days 26 23  
Month to date heating degree days 364 273  
Since 1 July heating degree days 892 663  
Cooling Degree Days 0 0  
Month to date cooling degree days 0 0  
Year to date cooling degree days 1424 1298  
Moisture  
Dew Point 28 °F    
Average Humidity 69    
Maximum Humidity 92    
Minimum Humidity 35    
Precipitation  
Precipitation 0.00 in 0.02 in 0.40 in (1968)
Month to date precipitation T 0.29  
Year to date precipitation 12.89 18.69  
Sea Level Pressure  
Sea Level Pressure 30.35 in    
Wind  
Wind Speed 6 mph ()    
Max Wind Speed 13 mph    
Max Gust Speed 17 mph    
Visibility 10.0 miles    
Events      
T = Trace of Precipitation, MM = Missing Value Source: Averaged Metar Reports

Daily Weather History Graph

Daily Weather History Graph

Search for Another Location

Airport or City:

Astronomy

Nov. 14, 2019 Rise Set
Actual Time 7:22 AM CST 5:32 PM CST
Civil Twilight 6:54 AM CST 6:00 PM CST
Nautical Twilight 6:22 AM CST 6:31 PM CST
Astronomical Twilight 5:51 AM CST 7:02 PM CST
Moon 7:20 PM CST (11/14) 9:18 AM CST (11/14)
Length of Visible Light 11h 05m
Length of Day
10h 09m
Waning Gibbous, 95% of the Moon is Illuminated
Nov 14
Waning Gibbous
Nov 19
Last Quarter
Nov 26
New
Dec 4
First Quarter
Dec 11
Full

Hourly Weather History & Observations

Time (CST) Temp. Windchill Dew Point Humidity Pressure Visibility Wind Dir Wind Speed Gust Speed Precip Events Conditions
12:54 AM 28.9 °F 21.9 °F 26.1 °F 89% 30.24 in 10.0 mi NNW 6.9 mph - N/A   Clear
1:54 AM 28.9 °F 21.9 °F 26.1 °F 89% 30.26 in 10.0 mi WNW 6.9 mph - N/A   Clear
2:54 AM 26.1 °F 18.4 °F 23.0 °F 88% 30.27 in 10.0 mi NW 6.9 mph - N/A   Clear
3:54 AM 24.1 °F 15.2 °F 21.0 °F 88% 30.29 in 10.0 mi NNW 8.1 mph - N/A   Clear
4:54 AM 28.0 °F 20.0 °F 26.1 °F 92% 30.30 in 10.0 mi NW 8.1 mph - N/A   Mostly Cloudy
5:54 AM 25.0 °F 17.1 °F 23.0 °F 92% 30.33 in 10.0 mi NNW 6.9 mph - N/A   Scattered Clouds
6:54 AM 26.1 °F 17.6 °F 23.0 °F 88% 30.37 in 10.0 mi NNW 8.1 mph - N/A   Partly Cloudy
7:54 AM 30.0 °F 21.7 °F 28.0 °F 92% 30.39 in 10.0 mi NNW 9.2 mph - N/A   Partly Cloudy
8:54 AM 34.0 °F 31.0 °F 30.0 °F 85% 30.41 in 10.0 mi WNW 3.5 mph - N/A   Partly Cloudy
9:54 AM 39.9 °F 34.5 °F 30.9 °F 70% 30.42 in 10.0 mi NNW 8.1 mph - N/A   Partly Cloudy
10:54 AM 46.0 °F 41.0 °F 33.1 °F 61% 30.41 in 10.0 mi NNE 10.4 mph - N/A   Clear
11:54 AM 50.0 °F - 33.1 °F 52% 30.40 in 10.0 mi North 8.1 mph - N/A   Clear
12:54 PM 51.1 °F - 32.0 °F 48% 30.38 in 10.0 mi Variable 3.5 mph - N/A   Clear
1:54 PM 54.0 °F - 30.9 °F 41% 30.35 in 10.0 mi East 6.9 mph - N/A   Clear
2:54 PM 54.0 °F - 30.0 °F 40% 30.35 in 10.0 mi Calm Calm - N/A   Clear
3:54 PM 55.0 °F - 28.9 °F 37% 30.34 in 10.0 mi ENE 4.6 mph - N/A   Clear
4:54 PM 53.1 °F - 28.9 °F 40% 30.33 in 10.0 mi Calm Calm - N/A   Clear
5:54 PM 46.9 °F - 28.9 °F 50% 30.37 in 10.0 mi SSE 3.5 mph - N/A   Clear
6:54 PM 39.9 °F 33.9 °F 26.1 °F 58% 30.39 in 10.0 mi SSE 9.2 mph - N/A   Clear
7:54 PM 37.0 °F 30.4 °F 27.0 °F 67% 30.38 in 10.0 mi SE 9.2 mph - N/A   Clear
8:54 PM 36.0 °F 29.0 °F 26.1 °F 67% 30.39 in 10.0 mi SSE 9.2 mph - N/A   Clear
9:54 PM 34.0 °F 27.2 °F 26.1 °F 73% 30.38 in 10.0 mi SSE 8.1 mph - N/A   Clear
10:54 PM 33.1 °F 26.1 °F 27.0 °F 78% 30.38 in 10.0 mi South 8.1 mph - N/A   Clear
11:54 PM 32.0 °F 26.4 °F 26.1 °F 79% 30.37 in 10.0 mi SSE 5.8 mph - N/A   Clear